Messages
logo

Welcome to Perpetual Archive, a project to automatically archive and share YouTube Channels at maximum quality, as an alternative to incremental torrents.


Site Feedback Survey, Greatly Appreciated


Over 2TB Of Downloads!

Folder
Up
2 folders, 157 files, 21.2 GBytes
Select

0 items selected

Actions
Get list
Server information Server time: 2/21/2019 1:54:04 PM Server uptime: (26 days) 11:53:19

Have a channel request, link to something I'm missing, or takedown request?


Contact Me Here

Want to donate to the project to help buy more storage or pay for power?


BTC:

1Gm74eQn7yeqJsyHS6fuM1gizjgsyPhAqY

BCH:

1NSkY7dRkqsyTS8isWa1Q7cXERHFJgy7Rn

LTC:

LSFFFrq4FDXy7Sbjeq1gxnuq686HKdJMa4

Name.extension Size Timestamp Hits⇓
thumb folder1/13/2019 2:56:38 PM187
Subtitles and Descriptions folder1/13/2019 2:56:34 PM747
20120319 - Photonicinduction.mkv 63.1 MB3/8/2018 6:25:34 AM0
20120321 - Erase CD with HV + DVD.mkv 89.1 MB12/8/2015 7:17:34 AM0
20120323 - Bonkers Conkers.mkv 157.8 MB5/16/2014 12:42:04 AM0
20120323 - Fastest Kettle Boil + Pop.mkv 35.2 MB1/9/2014 1:49:56 AM0
20120323 - Over Current On Industrial Fuse.mkv 30.0 MB2/10/2014 7:26:25 AM0
20120323 - Photonicinduction Makes Cake.mkv 73.4 MB12/31/2013 12:47:35 PM0
20120324 - Big Boys Power Supply.mkv 223.1 MB1/17/2014 9:45:46 AM0
20120324 - Coconuts Explode Using Electricity.mkv 158.9 MB3/16/2014 2:46:28 AM0
20120324 - Computer and TV Microwaved While On.mkv 114.5 MB11/21/2014 7:11:23 PM0
20120324 - Electric Wheelchair Mayhem.mkv 38.8 MB6/19/2017 12:32:10 PM0
20120324 - Health And Safety Common Sense.mkv 32.0 MB12/30/2013 5:58:54 AM0
20120326 - Computer Skills.mkv 67.0 MB2/9/2014 9:08:47 PM0
20120326 - HD and Motor Speaker.mkv 72.6 MB4/22/2014 2:01:15 PM0
20120326 - Too Much Current + Electric Meter Pops.mkv 128.7 MB3/19/2018 8:53:19 AM0
20120326 - Ultra High Energy Destruction + Can Crush.mkv 122.3 MB4/25/2015 5:02:01 AM0
20120328 - 12 kW Halide Lamp.mkv 235.3 MB3/7/2014 10:43:47 PM0
20120328 - 300Kv On A Television.mkv 163.2 MB6/1/2017 12:08:09 AM0
20120328 - Cheap Backup Power.mkv 198.1 MB11/6/2016 5:29:25 PM0
20120330 - Camcorder And Lamp In Microwave.mkv 60.8 MB3/8/2018 12:30:37 PM0
20120330 - Extreme Speed Electric Motors.mkv 124.0 MB6/6/2017 6:38:00 AM0
20120330 - Fun With Arc Lamps.mkv 150.6 MB8/16/2014 12:33:56 AM0
20120330 - Naughty Boy's Electromagnet.mkv 101.7 MB12/20/2013 2:34:59 AM0
20120331 - Corona Wind.mkv 33.6 MB3/8/2018 9:19:15 AM0
20120402 - 200KV On A Grow Lamp.mkv 104.1 MB2/9/2015 12:16:57 AM0
20120402 - 240v-440v.mkv 173.2 MB1/9/2014 10:41:46 AM0
20120402 - Bigger Variac and Load Test.mkv 104.7 MB1/11/2014 10:07:01 AM0
20120402 - Variac Overdrive.mkv 186.7 MB12/25/2013 9:21:30 AM0
20120403 - Creme Eggs Shoot Their Goo.mkv 30.2 MB1/19/2014 12:47:40 AM0
20120409 - 50,000 Amp Transformer Completed.mkv 94.5 MB3/19/2018 8:20:39 AM0
20120409 - Building A Monster High Current Transformer.mkv 198.2 MB11/26/2014 4:17:56 AM0
20120409 - Extreme Speed Record Player.mkv 48.2 MB5/26/2017 11:01:16 AM0
20120409 - Plasma Ball Overload.mkv 145.8 MB12/8/2015 1:25:46 AM0
20120410 - Light Switch and MCB Explode.mkv 95.6 MB1/18/2014 7:20:15 AM0
20120411 - Random Smash and Bangs.mkv 187.4 MB1/16/2014 8:24:48 AM0
20120412 - Light Bulb Overload Remix.mkv 80.4 MB1/18/2014 8:57:40 AM0
20120414 - CRT Overdrive.mkv 34.3 MB7/25/2018 11:07:42 AM0
20120414 - Hair Dryer Combustion Test.mkv 105.8 MB11/12/2014 9:24:37 AM0
20120414 - Mad Science 500 keV.mkv 64.8 MB12/29/2013 7:23:13 AM0
20120414 - Triple Pop.mkv 135.2 MB5/28/2015 9:54:05 PM0
20120414 - Vibrator Overvolt.mkv 124.0 MB3/15/2014 1:37:18 AM0
20120415 - Argon Laser Meltdown.mkv 170.7 MB11/23/2014 5:53:32 AM0
20120415 - Ignition Tests With Lasers & HV.mkv 135.8 MB9/18/2014 7:19:06 PM0
20120416 - Photon Bonding With The Neighbours.mkv 87.2 MB3/13/2014 11:44:09 PM0
20120417 - Leaf Blower Fun + Weather Balloon Pop.mkv 19.2 MB6/25/2016 9:51:13 PM0
20120417 - Phone & Helicopter Zap.mkv 31.2 MB3/9/2014 5:58:26 PM0
20120418 - Big Capacitor Safety.mkv 84.8 MB6/24/2016 5:04:57 PM0
20120427 - 75w HID Torch.mkv 171.9 MB10/7/2013 4:40:01 PM0
20120501 - Motor Inverters.mkv 222.5 MB4/22/2015 2:57:57 AM0
20120502 - Arc Welders.mkv 179.7 MB9/26/2015 7:06:25 PM0
20120502 - Car Battery Test.mkv 69.1 MB5/18/2015 3:49:48 AM0
20120505 - Fire And Ice.mkv 121.2 MB7/1/2014 6:43:38 PM0
20120505 - Food Mixer Burn Out.mkv 92.7 MB1/1/2014 12:21:35 AM0
20120505 - Hot Potential Divider.mkv 142.3 MB6/13/2015 5:15:01 AM0
20120505 - Old Rectifiers.mkv 143.7 MB12/30/2013 2:59:38 PM0
20120506 - 1100 Amp Extreme MOT.mkv 207.2 MB4/23/2014 10:31:17 AM0
20120506 - Clock Radio And Toy Rabbit Pop.mkv 92.1 MB1/16/2014 8:51:47 PM0
20120506 - Dishwasher Problems.mkv 222.6 MB11/30/2014 12:25:45 AM0
20120506 - Extreme Toaster And Egg Tests.mkv 135.6 MB3/3/2018 3:01:39 PM0
20120507 - Electronics Overloaded.mkv 68.3 MB9/28/2018 9:29:58 PM0
20120507 - Hot Wire Foam Cutter.mkv 147.6 MB5/27/2015 2:57:15 AM0
20120509 - Monster Jacob's Ladder 200,000 Volts.mkv 217.3 MB11/26/2015 6:40:30 AM0
20120511 - Heating Elements Pop On 440v.mkv 88.7 MB1/16/2014 12:05:05 PM0
20120512 - Photon Meets TheManLab7.mkv 206.3 MB1/14/2014 11:49:52 PM0
20120515 - Big Battery Hack.mkv 166.8 MB11/23/2014 5:45:30 PM0
20120515 - Cordless Drill Battery Fix.mkv 142.8 MB10/21/2015 1:51:48 AM0
20120515 - High Voltage Naughty Boy Time.mkv 195.7 MB1/15/2014 2:18:57 AM0
20120516 - Hot Induction Loop.mkv 136.8 MB7/15/2014 5:04:57 PM0
20120521 - Easy Coil Gun + Melon Pop.mkv 99.1 MB6/19/2017 9:26:29 AM0
20120615 - What Were Those 3 Dots .mkv 288.7 MB6/19/2017 3:48:10 AM0
20120709 - Air Ioniser Up In Flames.mkv 62.7 MB1/8/2014 8:57:45 AM0
20120719 - More Washing Machine Madness.mkv 60.0 MB3/19/2018 7:14:28 AM0
20120727 - Photon's Thunderstorm Capacitor.mkv 150.5 MB12/29/2013 10:39:46 AM0
20120805 - The Ultimate Fly Killer.mkv 25.9 MB3/10/2016 12:12:27 PM0
20121013 - Selenium Carbon Arc Rectifier.mkv 321.8 MB11/16/2015 2:03:42 AM0
20121028 - Kent Motor Tug Trip.mkv 337.6 MB9/15/2014 2:25:31 AM0
20121102 - Useful Contactor and Delay.mkv 99.5 MB7/24/2014 9:13:52 AM0
20121106 - Inside A Miele 6055 Washing Machine.mkv 153.9 MB3/8/2018 5:51:48 AM0
20121118 - State Of Matter.mkv 194.8 MB2/4/2017 5:19:18 AM0
20121123 - Exposed Free Energy Magnet Motor.mkv 193.1 MB12/9/2015 3:48:00 AM0
20130219 - High Voltage With High Current.mkv 192.4 MB11/25/2014 7:03:39 AM0
20130220 - Huge Light Bulb.mkv 86.3 MB3/8/2018 4:45:30 AM0
20130222 - The Original Washing Machine Self Destructs.mkv 38.9 MB5/31/2017 7:37:05 PM0
20130305 - Extreme Dyson Test.mkv 219.1 MB9/4/2014 7:40:25 PM0
20130319 - Generating X rays.mkv 100.5 MB4/23/2015 11:11:49 PM0
20130320 - Camera Rotor Test.mkv 123.2 MB3/10/2014 2:38:17 PM0
20130320 - Christmas Lights Overload.mkv 127.3 MB1/9/2014 6:39:01 AM0
20130320 - Current Cake.mkv 90.2 MB2/17/2014 6:01:16 AM0
20130321 - Death Wand On Circuit Board.mkv 96.4 MB8/16/2014 12:20:33 AM0
20130330 - BoomBoxDeluxe Visits Mr Photon.mkv 201.6 MB9/18/2014 8:16:23 PM0
20130404 - Motor And PCB Pop.mkv 89.8 MB6/5/2017 12:55:05 AM0
20130405 - Easy Electrical Project (with overload).mkv 277.7 MB5/25/2015 10:59:35 AM0
20130407 - Electricians Playtime.mkv 216.5 MB5/16/2014 3:55:52 AM0
20130503 - Inside The High Voltage Transformer.mkv 84.8 MB7/1/2015 12:03:08 AM0
20130504 - Bright Entertainment.mkv 196.9 MB3/2/2018 9:19:03 PM0
20130504 - Electronic v Magnetic Ballast.mkv 103.2 MB12/26/2013 6:12:40 PM0
20130508 - Industrial Fuses.mkv 111.4 MB6/4/2015 4:31:54 AM0
20130510 - Pyroman1990 Visits Photon.mkv 239.3 MB12/16/2013 4:31:19 PM0
20130531 - 300kv Transformer Repaired.mkv 168.1 MB1/9/2014 4:06:46 AM0
20130601 - Mercury Arc Rectifier.mkv 67.6 MB10/6/2014 6:55:37 PM0
20130615 - Killer Screwdriver.mkv 155.2 MB3/10/2016 10:03:00 AM0
20130628 - Most Powerful Torch 2.1kW.mkv 29.3 MB4/25/2015 4:36:33 AM0
20130712 - ExperiMental 4D TV Old Style Photon.mkv 72.4 MB12/22/2013 7:22:42 AM0
20131224 - Quick Happy Christmas.mkv 56.0 MB1/7/2014 8:50:38 PM0
20140108 - LED Retrofit.mkv 348.6 MB6/19/2017 11:31:30 PM0
20140120 - High Voltage Playing Safely.mkv 131.2 MB8/16/2014 12:27:35 AM0
20140125 - LED Lamp Blasted With 6000 Volts.mkv 168.6 MB8/15/2014 3:31:43 AM0
20140203 - 8 in 1 Lamp Fun With CrazySparkie63.mkv 234.7 MB2/8/2014 7:43:56 AM0
20140304 - Quickie - Electric Go Kart Fun.mkv 45.8 MB3/9/2014 11:00:22 PM0
20140312 - Exploding Resistors (slow mo).mkv 74.3 MB3/14/2014 10:11:59 AM0
20140317 - Extreme Speed Hand Sewing Machine.mkv 233.1 MB4/21/2014 1:30:12 PM0
20140406 - UK Street Lights Off At Night.mkv 96.5 MB4/14/2015 4:53:34 AM0
20140421 - Photon's Mystery Motorway Drive.mkv 336.7 MB5/23/2014 11:25:53 AM0
20140914 - 20,000 Watt Power Supply.mkv 264.6 MB4/3/2015 12:38:48 AM0
20140930 - Welcome to Chapter 2.mkv 245.8 MB2/20/2015 7:29:11 AM0
20141004 - Photonicinduction's Channel Trailer.mkv 70.8 MB10/15/2015 12:29:46 PM0
20141017 - 10 Second Toaster.mkv 178.9 MB4/20/2015 2:56:12 AM0
20141022 - 10 Second Kettle.mkv 81.8 MB11/6/2014 11:46:05 PM0
20141030 - Extreme Iron Test.mkv 83.0 MB5/17/2015 11:54:29 PM0
20141107 - November 5th Sandwich Toaster + Overload.mkv 95.5 MB11/27/2014 2:17:01 AM0
20141107 - Photon Uncut Bonus Bits 1.mkv 184.3 MB11/16/2014 12:50:03 PM0
20150130 - Easyjumper Starts V8 5L Merc !.mkv 154.7 MB12/12/2015 3:01:32 PM0
20150307 - Dino's Troublesome Tablet Gets Fried.mkv 121.8 MB4/25/2015 6:28:24 AM0
20150307 - Microwave Overclocked.mkv 121.7 MB10/15/2017 1:09:50 PM0
20150615 - 100 Watt Laser Blasts Phone.mkv 97.6 MB6/15/2015 5:56:38 PM0
20150621 - Nd YAG Laser Strip Down.mkv 220.4 MB6/21/2015 4:45:30 PM0
20150704 - Elements with too Much Voltage.mkv 76.1 MB7/4/2015 1:22:21 PM0
20150704 - Lawn Mower Torture.mkv 119.2 MB7/4/2015 3:23:28 PM0
20150718 - 30kW and 4kW Xenon Lamps Get Tested on a DC Welder.mkv 173.6 MB7/18/2015 5:20:18 PM0
20150718 - Xenon Short Arc Lamp Ignition.mkv 139.9 MB7/18/2015 4:56:17 PM0
20150929 - Touching The Tesla Coil.mkv 111.0 MB9/29/2015 8:23:40 AM0
20151018 - 20,000 Amp Breaker Switch.mkv 211.6 MB4/24/2017 7:48:59 PM0
20151019 - Overclocked Electric Mobility Scooter.mkv 242.2 MB10/19/2015 4:43:38 PM0
20160523 - Wireless Power Cube.mkv 53.8 MB5/23/2016 9:52:33 AM0
20160530 - Ballistic Gel Vs Electricity.mkv 234.1 MB5/30/2016 2:15:34 PM0
20160612 - Wireless 240v Power Cube Reveal.mkv 76.6 MB6/12/2016 9:23:25 AM0
20160618 - Until it Pops - Vacuum Cleaner.mkv 67.6 MB6/18/2016 3:28:12 AM0
20160624 - Until it Pops - 1000 Watt Light Bulb.mkv 79.4 MB6/24/2016 6:24:14 AM0
20160702 - Until it Pops - Mitre Saw.mkv 136.2 MB7/4/2016 6:20:07 AM0
20160710 - Boiling water inside a light bulb.mkv 80.6 MB7/10/2016 7:35:51 PM0
20160717 - 20,000 Watt Light Bulb Test.mkv 83.7 MB7/28/2018 4:52:05 AM0
20160731 - Steel Chain VS Electrical Current.mkv 178.1 MB8/1/2016 2:38:38 AM0
20161028 - Enlightened Pumpkin.mkv 88.9 MB10/28/2016 12:01:42 PM0
20161028 - What Happens When A New £5 Note Gets Warm .mkv 19.7 MB10/28/2016 2:13:59 PM0
20170402 - Don't Poke a Lithium Polymer Cell.mkv 43.3 MB5/5/2018 4:48:00 PM0
20170409 - Over Powered Car Radiator Fan.mkv 222.4 MB10/14/2017 10:29:56 PM0
Photonicinduction's Crazy Adventure.mkv 1.2 GB3/23/2018 7:26:46 PM0
20120324 - Vacuum Cleaner Sucks Up Petrol.mkv 111.9 MB3/10/2014 1:56:29 AM1
20120325 - Extreme Marbles.mkv 39.1 MB3/8/2018 7:29:35 AM1
20120613 - 5000 Amp Fuse + Tools Melt With High Current.mkv 151.7 MB10/6/2018 5:36:38 AM1
20131230 - Extreme Speaker Test 21' Driver Pop.mkv 218.1 MB10/21/2018 12:54:19 AM1
20170326 - Until it Pops - 2 Bar Electric Fire.mkv 175.7 MB10/20/2018 8:07:38 PM1
King & Taylor - Andrew, Company Director Testimonial (Photon in a commercial).mp4 26.9 MB12/1/2017 9:54:37 AM1
UK Home Office Fail.mp4 362.1 MB5/3/2018 8:53:11 PM1
20120327 - Clothes Iron Meltdown.mkv 95.9 MB12/15/2013 6:06:19 AM2
20120323 - TV Assisted Suicide.mkv 14.3 MB12/30/2013 10:51:00 PM4
20120416 - If Photon Made Adverts.mkv 15.2 MB2/28/2014 8:39:29 PM4
Cleanup.bat 241B10/26/2018 2:22:08 AM17